Location: Peebles
(55.6412°N, 3.1714°W)
Time: 15:06:54
(UTC+01:00)

ATLAS 5 CENTAUR R/B - Pass Details

Date: 26 September 2021
Orbit: 280 x 14050 km, 60.8° (Epoch: 17 October)

Event Time Altitude Azimuth Distance (km) Brightness Sun altitude
Rises 22:59:02 0° 259° (W) 11,620 8.8 -30.4°
Reaches altitude 10° 23:10:50 10° 263° (W) 8,089 8.0 -31.3°
Maximum altitude 23:29:21 63° 345° (NNW) 1,487 4.0 -32.7°
Enters shadow 23:31:29 40° 48° (NE) 1,473 3.9 -32.8°
